Content
SEND FEEDBACK

Daily
Averages
Monthly
Summary
United States of America

ANN ARBOR, MICHIGAN


Home > North America > United States > Michigan
Elevation: 231 meters     Latitude: 42 17N     Longitude: 083 43W

WEATHER
 
SELECT A DAY
Number of Records: 206,264;   Date Range: 1/1/95 - 9/29/14
 
SHARE

PRINT THIS DATA

[ ← Previous Day ]
WEATHER ALMANAC - 28 APRIL, 2013
[ Next Day → ]
[ °F ]   °C
Weather ElementAverageHighLow
Temperature11.6 °C12.2 °C (4:53 pm)10 °C (6:53 am)
Dewpoint9.7 °C12 °C (5:23 pm)1.1 °C (2:53 am)
Humidity89.6 %100 % (2:15 pm)50 % (2:53 am)
Barometer1012.9 hPa1018.6 hPa (1:53 am)1010.5 hPa (7:39 pm)
Wind Speed8.5 km/h16.7 km/h (12:53 pm)
Weather ElementAverage
Visibility6.1 km
Wind DirectionE (89 °)

Weather ElementTotal
Precipitation14.22 mm
Heating Degree Days7.2 (Base 18.3)
Growing Degree Days1.1 (Base 10)
Averaged from 51 records on 28 April, 2013
WEATHER CONDITIONS BREAKOUT
WIND DIRECTION BREAKOUT
WEATHER BY HOUR - 28 APRIL, 2013
[ °F ]   °C
Local TimeTemperatureDewpointHumidityBarometerVisibilityWind DirectionWind SpeedGust SpeedPrecipitationEventsConditions
1:53 AM10.6 °C1.7 °C54 %1018.6 hPa16.1 kmCalmOvercast
2:53 AM11.1 °C1.1 °C50 %1017.3 hPa16.1 kmENE (60°)5.6 km/hOvercast
3:53 AM10.6 °C1.1 °C52 %1016.6 hPa16.1 kmEast (80°)7.4 km/hOvercast
4:53 AM10.6 °C1.7 °C54 %1016.3 hPa16.1 kmCalmOvercast
5:53 AM10.6 °C2.2 °C56 %1016.3 hPa16.1 kmENE (70°)5.6 km/hOvercast
6:53 AM10 °C2.8 °C61 %1015.6 hPa16.1 kmNE (50°)5.6 km/hOvercast
7:53 AM10 °C3.9 °C66 %1015.6 hPa16.1 kmEast (90°)7.4 km/hOvercast
8:53 AM10.6 °C5 °C68 %1015.6 hPa16.1 kmEast (100°)9.3 km/hOvercast
9:53 AM11.7 °C8.3 °C80 %1015.2 hPa12.9 kmSE (130°)13 km/h0.25 mmRainLight Rain
10:09 AM11 °C9 °C88 %1014.9 hPa8 kmSE (130°)14.8 km/h0.25 mmRainLight Rain
10:49 AM11 °C9 °C88 %1014.6 hPa8 kmESE (110°)13 km/h1.27 mmRainLight Rain
10:53 AM11.1 °C9.4 °C89 %1014.6 hPa8 kmESE (110°)9.3 km/h1.52 mmRainLight Rain
11:09 AM11 °C10 °C94 %1014.2 hPa6.4 kmEast (100°)11.1 km/h0.25 mmRainLight Rain
11:23 AM11 °C10 °C94 %1014.2 hPa8 kmESE (110°)13 km/h0.76 mmRainLight Rain
11:41 AM11 °C10 °C94 %1013.9 hPa8 kmESE (120°)13 km/h1.02 mmRainLight Rain
11:53 AM11.1 °C10 °C93 %1013.9 hPa8 kmESE (110°)11.1 km/h1.27 mmRainLight Rain
12:53 PM11.1 °C10 °C93 %1013.5 hPa6.4 kmSE (130°)16.7 km/h0 mmOvercast
1:02 PM11 °C10 °C94 %1013.2 hPa4 kmESE (120°)14.8 km/hOvercast
1:16 PM11 °C10 °C94 %1012.9 hPa4.8 kmSE (130°)14.8 km/hOvercast
1:53 PM11.1 °C10.6 °C97 %1012.9 hPa6.4 kmESE (120°)13 km/h0 mmOvercast
2:15 PM11 °C11 °C100 %1012.5 hPa3.2 kmEast (100°)11.1 km/h0.25 mmOvercast
2:28 PM11 °C11 °C100 %1012.5 hPa2.4 kmEast (100°)9.3 km/h0.25 mmRainLight Rain
2:40 PM12 °C11 °C94 %1012.5 hPa1.9 kmEast (100°)7.4 km/h0.51 mmRainLight Rain
2:53 PM11.7 °C10.6 °C93 %1012.5 hPa1.9 kmEast (100°)9.3 km/h0.76 mmRainLight Rain
3:08 PM12 °C11 °C94 %1012.2 hPa2.4 kmEast (100°)11.1 km/h0 mmRainLight Rain
3:20 PM12 °C11 °C94 %1012.2 hPa3.2 kmEast (100°)11.1 km/h0.25 mmOvercast
3:46 PM12 °C11 °C94 %1011.9 hPa6.4 kmEast (100°)11.1 km/h0.25 mmRainLight Rain
3:53 PM11.7 °C11.1 °C96 %1011.9 hPa4.8 kmEast (100°)9.3 km/h0.25 mmRainLight Rain
4:00 PM12 °C11 °C94 %1011.5 hPa4 kmESE (110°)9.3 km/h0.25 mmRainLight Rain
4:18 PM12 °C11 °C94 %1011.5 hPa4.8 kmESE (110°)9.3 km/h0.76 mmRainLight Rain
4:36 PM12 °C11 °C94 %1011.2 hPa3.2 kmEast (100°)9.3 km/h1.02 mmRainLight Rain
4:48 PM12 °C11 °C94 %1011.2 hPa4.8 kmESE (110°)11.1 km/h1.27 mmRainLight Rain
4:53 PM12.2 °C11.1 °C93 %1011.2 hPa4 kmEast (100°)11.1 km/h1.27 mmRainLight Rain
5:23 PM12 °C12 °C100 %1011.2 hPa4.8 kmEast (100°)7.4 km/h0 mmOvercast
5:33 PM12 °C12 °C100 %1010.8 hPa4 kmEast (90°)5.6 km/h0 mmOvercast
5:48 PM12 °C12 °C100 %1010.8 hPa2.9 kmEast (90°)9.3 km/h0 mmOvercast
5:53 PM12.2 °C11.7 °C97 %1011.2 hPa2.4 kmEast (100°)9.3 km/h0 mmOvercast
6:04 PM12 °C12 °C100 %1010.8 hPa1.9 kmEast (90°)5.6 km/h0 mmRainLight Rain
6:10 PM12 °C12 °C100 %1010.8 hPa2.4 kmEast (100°)7.4 km/h0 mmRainLight Rain
6:44 PM12 °C12 °C100 %1010.8 hPa3.2 kmEast (90°)7.4 km/h0 mmOvercast
6:53 PM12.2 °C11.7 °C97 %1011.2 hPa3.2 kmEast (90°)7.4 km/h0 mmOvercast
7:06 PM12 °C12 °C100 %1010.8 hPa2.4 kmEast (100°)7.4 km/hOvercast
7:39 PM12 °C12 °C100 %1010.5 hPa1.9 kmEast (90°)5.6 km/h0.25 mmOvercast
7:53 PM12.2 °C11.7 °C97 %1010.5 hPa1.9 kmESE (110°)7.4 km/h0.25 mmOvercast
8:40 PM12 °C12 °C100 %1010.5 hPa3.2 kmEast (90°)7.4 km/hOvercast
8:53 PM12.2 °C11.7 °C97 %1010.8 hPa4 kmEast (90°)7.4 km/hOvercast
9:26 PM12 °C12 °C100 %1010.8 hPa2.4 kmCalmOvercast
9:35 PM12 °C12 °C100 %1010.8 hPa1.9 kmESE (110°)7.4 km/hOvercast
9:53 PM12.2 °C11.7 °C97 %1011.2 hPa1.3 kmCalmOvercast
10:53 PM12.2 °C11.7 °C97 %1010.8 hPa0.3 kmCalmFogFog
11:53 PM12.2 °C11.7 °C97 %1010.8 hPa0.3 kmCalmFogFog
Hourly data recorded from KARB, located 0 kilometers away from Ann Arbor, Michigan







STORIES FROM OUR PARTNERS